TimeEST,TemperatureF,Dew PointF,Humidity,Sea Level PressureIn,VisibilityMPH,Wind Direction,Wind SpeedMPH,Gust SpeedMPH,PrecipitationIn,Events,Conditions,WindDirDegrees,DateUTC
12:56 AM,34.0,14.0,44,30.32,-9999.0,WNW,11.5,-,N/A,,Clear,290,2013-02-18 05:56:00
1:56 AM,33.1,12.9,43,30.34,-9999.0,NW,10.4,-,N/A,,Clear,310,2013-02-18 06:56:00
2:56 AM,32.0,12.9,45,30.34,-9999.0,NW,10.4,-,N/A,,Clear,310,2013-02-18 07:56:00
3:56 AM,32.0,14.0,48,30.34,-9999.0,NW,10.4,-,N/A,,Clear,320,2013-02-18 08:56:00
4:56 AM,30.9,15.1,52,30.37,-9999.0,NNW,4.6,-,N/A,,Clear,330,2013-02-18 09:56:00
5:56 AM,32.0,10.9,42,30.39,-9999.0,NNW,10.4,-,N/A,,Clear,330,2013-02-18 10:56:00
6:56 AM,30.9,14.0,50,30.42,-9999.0,NNW,5.8,-,N/A,,Clear,340,2013-02-18 11:56:00
7:56 AM,34.0,16.0,48,30.44,-9999.0,North,6.9,-,N/A,,Clear,350,2013-02-18 12:56:00
8:56 AM,35.1,14.0,42,30.46,-9999.0,North,6.9,-,N/A,,Clear,350,2013-02-18 13:56:00
9:56 AM,37.0,12.9,37,30.47,-9999.0,North,8.1,-,N/A,,Clear,10,2013-02-18 14:56:00
10:56 AM,37.9,14.0,38,30.47,-9999.0,Variable,4.6,-,N/A,,Clear,0,2013-02-18 15:56:00
11:56 AM,39.9,10.9,31,30.46,-9999.0,NNW,5.8,-,N/A,,Clear,330,2013-02-18 16:56:00
12:56 PM,42.1,15.1,34,30.43,-9999.0,Variable,3.5,-,N/A,,Clear,0,2013-02-18 17:56:00
1:56 PM,42.1,19.0,40,30.41,-9999.0,East,6.9,-,N/A,,Clear,80,2013-02-18 18:56:00
2:56 PM,43.0,19.9,40,30.38,-9999.0,ENE,8.1,-,N/A,,Clear,70,2013-02-18 19:56:00
3:56 PM,45.0,19.9,37,30.38,-9999.0,East,4.6,-,N/A,,Clear,100,2013-02-18 20:56:00
4:56 PM,45.0,27.0,49,30.39,-9999.0,South,6.9,-,N/A,,Clear,170,2013-02-18 21:56:00
5:56 PM,41.0,27.0,57,30.40,-9999.0,South,5.8,-,N/A,,Clear,170,2013-02-18 22:56:00
6:56 PM,37.9,28.0,68,30.40,-9999.0,South,4.6,-,N/A,,Clear,180,2013-02-18 23:56:00
7:56 PM,37.9,28.0,68,30.39,-9999.0,South,4.6,-,N/A,,Clear,180,2013-02-19 00:56:00
9:56 PM,37.9,28.0,68,30.38,-9999.0,South,5.8,-,N/A,,Clear,190,2013-02-19 02:56:00
10:56 PM,37.9,28.9,70,30.36,-9999.0,South,4.6,-,N/A,,Clear,180,2013-02-19 03:56:00
11:56 PM,41.0,30.9,67,30.33,-9999.0,SSE,8.1,-,N/A,,Clear,160,2013-02-19 04:56:00